EDT,Max TemperatureF,Mean TemperatureF,Min TemperatureF,Max Dew PointF,MeanDew PointF,Min DewpointF,Max Humidity, Mean Humidity, Min Humidity, Max Sea Level PressureIn, Mean Sea Level PressureIn, Min Sea Level PressureIn, Max VisibilityMiles, Mean VisibilityMiles, Min VisibilityMiles, Max Wind SpeedMPH, Mean Wind SpeedMPH, Max Gust SpeedMPH,PrecipitationIn, CloudCover, Events, WindDirDegrees
2013-10-1,75,58,44,51,47,41,93,75,41,29.96,29.92,29.86,10,9,2,12,3,21,0.00,1,,335
2013-10-2,82,66,52,58,55,49,89,67,44,29.96,29.89,29.84,10,10,10,15,5,21,0.00,0,,265
2013-10-3,80,66,52,54,49,43,86,60,29,30.09,30.04,29.98,10,10,8,12,5,,0.00,0,,273
2013-10-4,68,56,46,57,53,43,94,86,59,30.09,30.06,30.04,10,6,1,7,1,,0.90,6,Rain,31
2013-10-5,68,62,55,58,56,54,94,83,68,30.13,30.09,30.06,10,9,2,9,2,,0.00,6,,47
2013-10-6,62,60,59,57,55,51,90,81,70,30.21,30.18,30.12,10,10,4,10,5,,0.00,8,Rain,77
2013-10-7,75,68,60,68,65,57,93,85,73,30.12,29.98,29.86,10,8,2,18,7,31,0.14,8,Rain,188
2013-10-8,68,58,48,64,47,41,88,66,39,30.35,30.14,29.89,10,10,6,14,8,23,0.00,2,Rain,320
2013-10-9,61,54,48,44,43,40,83,62,52,30.45,30.39,30.35,10,10,10,17,8,24,0.00,0,,55
2013-10-10,63,56,51,55,51,43,87,78,66,30.34,30.26,30.16,10,10,10,15,7,,0.00,4,,49
2013-10-11,66,56,48,55,53,45,94,80,56,30.15,30.13,30.11,10,10,10,16,9,23,0.00,5,,29
2013-10-12,63,58,54,55,51,46,84,78,72,30.37,30.28,30.14,10,10,9,17,9,24,0.00,5,,57
2013-10-13,60,50,39,47,44,36,86,71,57,30.43,30.39,30.35,10,10,6,14,8,21,0.00,5,,64
2013-10-14,64,48,33,48,41,30,93,78,56,30.41,30.34,30.27,10,9,4,7,1,,0.00,0,,108
2013-10-15,68,52,39,51,44,37,93,75,40,30.27,30.24,30.19,10,10,6,10,2,,0.00,1,,64
2013-10-16,61,52,43,55,51,40,97,89,82,30.17,30.05,29.92,10,6,0,9,3,,0.00,6,Fog,33
2013-10-17,71,62,55,58,56,53,94,86,64,29.91,29.85,29.76,10,6,0,16,5,22,0.00,5,Fog,226
2013-10-18,70,57,45,61,53,40,90,72,42,29.93,29.74,29.64,10,10,8,16,9,23,0.01,4,Rain,246
2013-10-19,64,50,37,48,41,34,86,68,45,30.00,29.92,29.78,10,10,10,8,1,,0.00,1,,180
2013-10-20,64,50,37,52,41,30,92,66,31,30.04,29.83,29.71,10,10,10,15,4,22,0.00,2,,258
2013-10-21,66,50,34,43,37,30,89,64,36,30.13,30.08,30.03,10,10,10,10,3,,0.00,0,,224
2013-10-22,69,56,44,51,45,37,93,73,47,30.02,29.84,29.73,10,9,2,13,3,22,0.00,2,,228
2013-10-23,53,44,36,41,36,32,89,72,50,29.81,29.70,29.60,10,10,10,6,2,,0.03,5,Rain,325
2013-10-24,54,44,35,35,29,23,77,57,33,29.90,29.79,29.65,10,10,10,16,8,26,0.00,1,,262
2013-10-25,52,42,30,32,27,24,79,58,41,30.17,30.04,29.92,10,10,10,16,7,24,0.00,1,,283
2013-10-26,57,40,26,38,30,23,89,63,32,30.17,30.07,29.90,10,10,10,26,6,34,0.00,2,,224
2013-10-27,57,46,36,39,33,27,82,58,38,30.08,29.92,29.84,10,10,10,17,7,23,0.01,3,Rain,266
2013-10-28,61,44,28,33,29,24,85,55,33,30.34,30.18,30.10,10,10,10,17,7,28,0.00,1,,282
2013-10-29,52,40,28,34,29,24,89,66,48,30.42,30.39,30.35,10,10,10,12,4,,0.00,3,,2
2013-10-30,52,40,28,43,37,26,93,85,74,30.36,30.26,30.21,10,8,1,6,0,,0.03,4,Rain,217
2013-10-31,64,49,34,59,47,31,93,84,72,30.25,30.13,29.87,10,7,2,15,3,29,0.04,6,Rain,197